Meath Environmental Platform

Observations for Trim Patrick St

Time AQI Temp °C Hum % Pres Pa CO μg/m³ H₂S μg/m³ NO μg/m³ NO₂ μg/m³ O₃ μg/m³ SO₂ μg/m³ PM1 μg/m³ PM2.5 μg/m³ PM10 μg/m³
Saturday 1 August 2026
21:20 3 20 49 68,835 0 17.79 1.15 32.17 50.2 6.58 6.29 11.86 13.04
21:19 3 20 50 68,845 0 18.18 1.13 32.89 54.35 7.16 8 14.09 15.5
21:18 3 20.1 49 68,829 0 18.53 1.19 36.42 50.78 6.93 5.43 13.34 14.68
21:17 3 20.1 49 68,813 0 18.34 1.19 39.22 44.82 7.37 8 14.88 16.37
21:15 3 20.2 49 68,794 0 18.11 1.21 42.36 43.54 6.63 9.71 16.44 18.08
21:11 3 20.4 48 68,780 0 20.27 1.19 52.19 34.15 7.31 10.57 19.54 21.49
21:10 3 20.5 48 68,802 0 19.74 1.14 50.16 36.77 7.7 9.71 16.49 18.14
21:09 3 20.6 48 68,802 0 19.24 1.12 45.73 43.48 7.02 8.86 15.75 17.33
21:08 3 20.6 48 68,802 0 19.27 1.06 48.14 37.27 6.86 9.71 17.3 19.03
21:07 3 20.7 48 68,806 0 19.42 1.14 50.44 41.9 6.79 8.86 15.75 17.33
21:06 3 20.7 47 68,811 0 19.11 1.11 32.5 56.94 7.64 9.71 18.89 20.78
21:05 3 20.8 47 68,813 0 19.37 1.1 33.69 54.59 7.58 8.86 16.58 18.24
21:04 3 20.8 47 68,819 0 19.45 1.13 40.1 50.03 7.99 8.86 16.62 18.28
21:03 3 20.9 47 68,833 0 19.26 1.13 38.84 48.35 7.94 8.86 17.4 19.14
21:02 3 21 47 68,815 0 19.32 1.07 33.97 57.57 7.99 8.86 16.63 18.29
21:01 3 21 46 68,819 0 18.63 1.05 34.41 51.52 7.96 9.71 16.68 18.35
21:00 3 21.1 46 68,827 0 18.95 1.07 30.92 52.39 8.43 8 15.16 16.67
20:58 3 21.2 46 68,808 0 18.71 1.15 37.85 50.86 7.99 6.29 14.35 15.78
20:57 3 21.2 46 68,809 0 19.55 1.16 43.12 44.43 8.17 8 15.97 17.57
20:56 3 21.3 46 68,815 0 19.82 1.2 47.37 42.33 7.89 8 15.14 16.65